Regional Weather Roundup
Issued by NWS

Home | Current Version | Previous Version | Graphics & Text | Print | Product List | Glossary On
Versions: 1 2 3 4 5 6 7 8 9 10 11 12 13 14 15 16 17 18 19 20 21 22 23 24 25 26 27 28 29 30 31 32 33 34 35 36 37 38 39 40 41 42 43 44 45 46 47 48 49 50
000
ASUS43 KMKX 191300
RWRWI

WISCONSIN REGIONAL WEATHER ROUNDUP
NATIONAL WEATHER SERVICE MILWAUKEE/SULLIVAN WI
700 AM CST FRI DEC 19 2014

NOTE: "FAIR" INDICATES FEW OR NO CLOUDS BELOW 12,000 FEET WITH NO
SIGNIFICANT WEATHER AND/OR OBSTRUCTIONS TO VISIBILITY.

WIZ001-002-006>008-014>016-023>028-191400-
NORTHWEST WISCONSIN

CITY           SKY/WX    TMP DP  RH WIND       PRES   REMARKS
SUPERIOR ARPT  CLOUDY    23  20  89 CALM      30.26S
ASHLAND        CLOUDY    23  20  88 SW5       30.28R WCI  17
HAYWARD        CLOUDY    21  19  92 S7        30.24S FOG     WCI  12
SIREN          CLOUDY    22  19  87 S5        30.25S WCI  16
CUMBERLAND     CLOUDY    23  19  86 S6        30.23S WCI  16
RICE LAKE      CLOUDY    23  20  89 S6        30.26S WCI  16
CHETEK         CLOUDY    23  19  87 SE5       30.25S WCI  17
LADYSMITH      CLOUDY    23  20  89 SW7       30.27R WCI  15
EAU CLAIRE     NOT AVBL
MENOMONIE      CLOUDY    24  19  82 S3        30.27S
NEW RICHMOND   CLOUDY    22  19  87 S5        30.26R WCI  16
OSCEOLA        FLURRIES  23  19  86 SE6       30.28S WCI  15
$$

WIZ003>005-009-010-017-018-191400-
NORTH CENTRAL WISCONSIN

CITY           SKY/WX    TMP DP  RH WIND       PRES   REMARKS
MANITOWISH WTR CLOUDY    15  14  96 CALM      30.22S
ARBOR VITAE    CLOUDY    14  11  89 CALM      30.22F FOG
WOODRUFF       CLOUDY    14  11  89 CALM      30.22F FOG
RHINELANDER    CLOUDY     4   1  88 CALM      30.23S FOG
EAGLE RIVER    LGT SNOW   2  -2  81 CALM      30.22F VSB 3/4
LAND O LAKES   MOCLDY    -2  -6  84 CALM      30.23S
PHILLIPS       CLOUDY    19  17  92 CALM      30.22S
TOMAHAWK       CLOUDY    11   9  90 CALM      30.25R
MEDFORD        CLOUDY    21  19  91 CALM      30.23S
MERRILL        CLOUDY    11   9  89 CALM      30.25S
$$

WIZ029-030-035-036-043>047-191400-
CENTRAL WISCONSIN

CITY           SKY/WX    TMP DP  RH WIND       PRES   REMARKS
WAUSAU         MOCLDY    15  12  88 CALM      30.25R
MOSINEE        NOT AVBL
MARSHFIELD     CLOUDY    23  19  85 S5        30.26R WCI  17
STEVENS POINT  CLEAR     11   8  89 CALM      30.28R
WAUPACA        CLEAR     16  13  89 CALM      30.29S
WAUTOMA        NOT AVBL
WISC RAPIDS    CLOUDY    23  19  85 CALM      30.29R
CAMP DOUGLAS   NOT AVBL
$$

WIZ011>013-019>022-031-037>040-048>050-191400-
NORTHEAST WISCONSIN

CITY           SKY/WX    TMP DP  RH WIND       PRES   REMARKS
ANTIGO         CLEAR      8   6  91 CALM      30.24S
SHAWANO        CLEAR     15  13  89 CALM      30.29S
OCONTO         PTCLDY    13  12  97 CALM      30.30R
STURGEON BAY   PTCLDY    19  16  86 CALM      30.30R
GREEN BAY      CLEAR     17  14  88 CALM      30.30R
MANITOWOC      NOT AVBL
APPLETON       PTCLDY    16  14  93 W6        30.28S WCI   7
CLINTONVILLE   CLEAR     16  14  93 CALM      30.29R
OSHKOSH        CLEAR     17  13  84 CALM      30.29R
$$

WIZ032>034-041-042-053>061-191400-
SOUTHWEST WISCONSIN

CITY           SKY/WX    TMP DP  RH WIND       PRES   REMARKS
LA CROSSE      CLOUDY    25  18  74 CALM      30.30R
SPARTA         CLOUDY    24  19  82 CALM      30.30R
VIROQUA        CLOUDY    23  19  87 CALM      30.26R
BOSCOBEL       CLOUDY    25  19  78 E3        30.31R
PRAIRIE DU CHI CLOUDY    26  20  79 CALM      30.30S
PLATTEVILLE    CLOUDY    24  21  86 CALM      30.29R
$$

WIZ056-057-062-063-064-067-068-191400-
SOUTH CENTRAL WISCONSIN

CITY           SKY/WX    TMP DP  RH WIND       PRES   REMARKS
REEDSBURG      CLOUDY    23  20  88 SW3       30.29R
BARABOO/DELLS  CLOUDY    24  20  86 W5        30.28R WCI  18
LONE ROCK      NOT AVBL
MINERAL POINT  CLOUDY    27  21  80 CALM      30.27R
MADISON        CLOUDY    25  20  81 VRB5      30.29R WCI  19
MIDDLETON      CLOUDY    26  21  80 W5        30.29R WCI  20
WATERTOWN      CLOUDY    24  22  92 CALM      30.28S
MONROE         CLOUDY    25  23  93 N3        30.27R
JANESVILLE     CLOUDY    28  23  80 CALM      30.29R
$$

WIZ051-052-058>065-066-070>072-191400-
SOUTHEAST WISCONSIN

CITY           SKY/WX    TMP DP  RH WIND       PRES   REMARKS
MILWAUKEE      CLOUDY    26  18  71 NW3       30.30R
WAUKESHA       CLOUDY    21  18  86 W3        30.30R
MILWAUKEE/TIMM MOCLDY    21  18  86 W3        30.30R
RACINE         CLOUDY    27  19  72 NW9       30.31R WCI  18
BURLINGTON     CLOUDY    24  20  85 NW7       30.29R WCI  16
KENOSHA        CLOUDY    27  21  78 NW6       30.29R WCI  20
FOND DU LAC    CLEAR     15  10  80 CALM      30.29R
SHEBOYGAN      CLOUDY    23  19  85 NW6       30.29R WCI  16
WEST BEND      MOCLDY    19  16  86 CALM      30.28R
JUNEAU         CLOUDY    22  20  91 N3        30.29S
$$

LSZ147-162-191400-
LAKE SUPERIOR

STATION/POSITION TIME  TEMP    WIND        PRES    WAVE
                       AIR SEA DIR/SP/G            HT/PER
                 (UTC) (F)     (DEG/KT/KT) (MB)    (FT/S)
DEVILS ISLAND    1200   24     200/  6/  9 1026.2F
PORT WING        1200   23     190/  5/  9 1025.1S
SAXON HARBOR     1200   20        CALM     1025.1S
$$

LMZ867-665-643>646-191400-
LAKE MICHIGAN

STATION/POSITION TIME  TEMP    WIND        PRES    WAVE
                       AIR SEA DIR/SP/G            HT/PER
                 (UTC) (F)     (DEG/KT/KT) (MB)    (FT/S)
CHAMBERS ISLAND  1200   23     300/  2/  6 1025.4S
NORTHPORT PIER   1205   27     330/  3/  6 1025.4R
SISTER BAY       1043           20/  7/  8   N/A
ALGOMA LAKESHORE 1214          340/  7/  8   N/A
KEWAUNEE LAKESHO 1200   20     310/  5/  6 1024.4R
SHEBOYGAN LAKESH 1200   25 34  280/  9/ 10 1026.6R
PORT WASHINGTON  1240   24     300/  6/  9 1026.4R
MILWAUKEE LAKESH 1200   26     300/  6/  7   N/A
KENOSHA   LAKESH 1200   27     310/  6/ 10 1025.4R
$$

TC  - TEMPERATURE IN CELSIUS
VSB - VISIBILITY IN STATUTE MILES
WCI - WIND CHILL INDEX
HX  - HEAT INDEX




USA.gov is the U.S. government's official web portal to all federal, state and local government web resources and services.